Regional Weather Roundup
Issued by NWS

Home | Current Version | Previous Version | Graphics & Text | Print | Product List | Glossary Off
Versions: 1 2 3 4 5 6 7 8 9 10 11 12 13 14 15 16 17 18 19 20 21 22 23 24 25 26 27 28 29 30 31 32 33 34 35 36 37 38 39 40 41 42 43 44 45 46 47 48 49 50

000
ASUS43 KFSD 271510
RWRSD

WEATHER ROUNDUP FOR SOUTH DAKOTA
NATIONAL WEATHER SERVICE SIOUX FALLS SD
900 AM CST MON FEB 27 2017

NOTE: "FAIR" INDICATES FEW OR NO CLOUDS BELOW 12,000 FEET WITH NO
SIGNIFICANT WEATHER AND/OR OBSTRUCTIONS TO VISIBILITY.


SDZ001>005-009-010-012>017-271600-
NORTHWEST AND NORTH CENTRAL SOUTH DAKOTA

CITY           SKY/WX    TMP DP  RH WIND       PRES   REMARKS
BUFFALO          N/A     24  22  91 S8        29.58S WCI  15
FAITH            N/A     22  22 100 SE10      29.67R WCI  11
MOBRIDGE       SUNNY     25  19  78 E13       29.73S WCI  14
$$

SDZ012>016-024>037-041>051-057-063-072>074-271600-
SOUTHWEST AND SOUTH CENTRAL SOUTH DAKOTA

CITY           SKY/WX    TMP DP  RH WIND       PRES   REMARKS
RAPID CTY ARPT CLOUDY    21  14  74 CALM      29.63S
PIERRE         MOSUNNY   25  17  72 SE13      29.73F WCI  14
CUSTER         PTSUNNY   23   7  50 W6        29.58R WCI  16
ELLSWORTH AFB  PTSUNNY   23  14  68 W5        29.62R WCI  17
PHILIP         MOSUNNY   26  16  65 SE3       29.69S
PINE RIDGE     PTSUNNY   26  15  63 S15G23    29.68S WCI  14
SPEARFISH      FAIR      30   7  37 W9        29.59R WCI  22
WINNER         FAIR      30  13  49 W9        29.76R WCI  22
$$

SDZ004>011-016>023-039-040-271600-
NORTHEAST SOUTH DAKOTA

CITY           SKY/WX    TMP DP  RH WIND       PRES   REMARKS
ABERDEEN       CLOUDY    24  20  84 E8        29.83S WCI  15
WATERTOWN      CLOUDY    25  20  81 S12       29.85R WCI  14
BROOKINGS      CLOUDY    25  19  78 S7        29.87S WCI  17
SISSETON         N/A     22  20  92 CALM      29.87S
$$

SDZ017-020-022-023-036>040-048>070-271600-
SOUTHEAST SOUTH DAKOTA

CITY           SKY/WX    TMP DP  RH WIND       PRES   REMARKS
SIOUX FALLS    MOSUNNY   28  21  75 S7        29.91R WCI  21
HURON          MOSUNNY   24  19  81 S8        29.85S WCI  15
CHAMBERLAIN    CLOUDY    29  21  71 E8        29.79F WCI  21
MITCHELL       SUNNY     25  18  74 SE8       29.88R WCI  16
YANKTON        SUNNY     19  16  86 E6        29.91S WCI  11
$$

ABBREVIATIONS USED IN REMARKS
   TC - TEMPERATURE IN CELSIUS
  WCI - WIND CHILL INDEX
   HX - HEAT INDEX
  VSB - VISIBILITY




USA.gov is the U.S. government's official web portal to all federal, state and local government web resources and services.